Location: Winter Haven
(28.0220°N, 81.7330°W)
Time: 22:20:09
(UTC-04:00)

Amateur Radio Satellites - All Passes

Search period start: 02 September 2014 21:50
Search period end: 03 September 2014 21:50
Location: Winter Haven, 28.0220°N, 81.7330°W

Satellite Date Start Highest point End Downlink Frequencies (MHz)
Time Altitude Azimuth
HO-68 02 Sep 22:14:34 22:21:35 61° 257° (WSW) 22:28:38 435.675 MHz FM
UKube-1 02 Sep 22:25:11 22:29:30 72° 258° (WSW) 22:33:50 145.840 MHz, 145.915 MHz
Oscar 11 02 Sep 22:27:50 22:32:07 71° 77° (ENE) 22:36:27 145.825 FM, Beacon 2401.500 USB
MaSat-1 02 Sep 22:53:32 22:57:22 34° 64° (ENE) 23:00:41 437.345 MHz
Saudisat 1A 02 Sep 22:53:40 22:57:20 26° 302° (WNW) 23:01:01 436.775 MHz
FUNcube-1 02 Sep 23:02:48 23:06:55 64° 77° (ENE) 23:11:06 145.950 - 145.970 MHz USB
KITSAT 1 02 Sep 23:38:08 23:46:10 70° 296° (WNW) 23:54:15 435.175 FM
KITSAT 1 03 Sep 01:40:10 01:42:57 12° 314° (NW) 01:45:43 435.175 FM
Sapphire 03 Sep 01:41:18 01:45:03 19° 57° (ENE) 01:48:46 437.095 MHz 1200 baud AX-25 AFSK
SO-50 03 Sep 02:07:47 02:10:35 17° 109° (ESE) 02:13:24 436.795 FM
PCSat 03 Sep 02:09:25 02:14:25 37° 62° (ENE) 02:19:23 145.825 MHz
Oscar 19 03 Sep 02:11:50 02:16:07 26° 97° (E) 02:20:22 437.125 CW, 437.150 USB
Oscar 10/S400 03 Sep 02:33:34 03:52:07 58° 230° (SW) 13:27:41 145.825 - 145.975 CW/USB, Beacon 145.810 USB
Oscar 16 03 Sep 02:46:36 02:51:46 66° 102° (ESE) 02:56:53 437.025 USB, Beacon 2401.1428
ITAMSAT 1 03 Sep 02:51:58 02:56:19 27° 98° (E) 03:00:39 435.822 SSB
Uribyol 2 03 Sep 03:00:40 03:05:26 36° 99° (E) 03:10:12 436.500 FM
TMSAT-1 03 Sep 03:20:33 03:23:34 15° 95° (E) 03:26:34 436.925 FM
AO-27 03 Sep 03:21:19 03:26:26 58° 101° (E) 03:31:32 436.795 MHz FM
Sapphire 03 Sep 03:23:29 03:28:36 44° 251° (WSW) 03:33:42 437.095 MHz 1200 baud AX-25 AFSK
SO-50 03 Sep 03:46:48 03:50:48 33° 301° (WNW) 03:54:53 436.795 FM
UOSAT-12 03 Sep 03:48:32 03:50:46 14° 107° (ESE) 03:53:02 437.025 FM, 437.400 FM
AO-Echo 03 Sep 03:49:59 03:54:35 56° 285° (WNW) 03:59:16 ?
Oscar 19 03 Sep 03:51:01 03:55:18 27° 289° (WNW) 03:59:34 437.125 CW, 437.150 USB
PCSat 03 Sep 03:53:35 03:57:30 21° 254° (WSW) 04:01:24 145.825 MHz
JAS-1B 03 Sep 03:54:57 04:01:09 81° 285° (WNW) 04:06:49 435.800 - 435.900 CW/SSB
Gurwin Techsat 1B 03 Sep 04:09:07 04:14:26 77° 102° (ESE) 04:19:44 435.225 FM
Oscar 16 03 Sep 04:29:19 04:30:28 11° 294° (WNW) 04:31:37 437.025 USB, Beacon 2401.1428
ITAMSAT 1 03 Sep 04:31:24 04:35:38 26° 289° (WNW) 04:39:52 435.822 SSB
AO-7 03 Sep 04:38:30 04:44:57 25° 98° (E) 04:51:21 29.400 - 29.500 MHz
Uribyol 2 03 Sep 04:40:56 04:44:36 20° 291° (WNW) 04:48:15 436.500 FM
Uosat F 03 Sep 04:44:52 04:48:11 18° 96° (E) 04:51:30 435.120 FM
TMSAT-1 03 Sep 04:58:34 05:03:35 46° 286° (WNW) 05:08:37 436.925 FM
AO-27 03 Sep 05:03:21 05:05:23 12° 294° (WNW) 05:07:24 436.795 MHz FM
OPAL 03 Sep 05:16:18 05:21:20 87° 75° (ENE) 05:26:29 ?
UOSAT-12 03 Sep 05:26:08 05:30:28 42° 300° (WNW) 05:34:54 437.025 FM, 437.400 FM
Uosat F 03 Sep 06:22:26 06:26:59 36° 288° (WNW) 06:31:31 435.120 FM
AO-7 03 Sep 06:29:54 06:37:53 55° 291° (WNW) 06:45:51 29.400 - 29.500 MHz
Hamsat 03 Sep 06:41:27 06:45:11 28° 97° (E) 06:48:51 145.90 MHz
RS-15 03 Sep 06:44:02 06:54:25 45° 108° (ESE) 07:04:30 29.354 - 29.394 USB, Beacon 29.352 USB
STRAND 1 03 Sep 07:06:29 07:11:13 40° 73° (ENE) 07:15:58 ?
JAS-2 03 Sep 07:21:46 07:27:15 80° 103° (ESE) 07:33:23 435.800 - 435.900 CW/SSB, 435.910 FM
Saudisat 1A 03 Sep 07:26:20 07:30:21 34° 59° (ENE) 07:34:20 436.775 MHz
KITSAT 1 03 Sep 07:40:59 07:46:13 18° 50° (NE) 07:51:24 435.175 FM
SO-67 03 Sep 08:10:43 08:14:00 41° 99° (E) 08:17:16 435.3500 MHz FM
Hamsat 03 Sep 08:18:06 08:20:51 17° 289° (WNW) 08:23:34 145.90 MHz
STRAND 1 03 Sep 08:47:22 08:50:28 16° 264° (W) 08:53:35 ?
ISS 03 Sep 08:55:59 08:59:18 87° 132° (SE) 09:02:37 145.800 FM
RS-15 03 Sep 08:56:21 09:06:36 41° 304° (NW) 09:16:44 29.354 - 29.394 USB, Beacon 29.352 USB
Saudisat 1A 03 Sep 09:06:58 09:09:35 16° 251° (WSW) 09:12:13 436.775 MHz
PANSAT 03 Sep 09:23:36 09:26:55 28° 158° (SSE) 09:30:15 not established
KITSAT 1 03 Sep 09:34:18 09:42:22 81° 247° (WSW) 09:50:24 435.175 FM
HO-68 03 Sep 09:50:06 09:56:42 39° 100° (E) 10:03:18 435.675 MHz FM
UKube-1 03 Sep 10:20:39 10:24:34 33° 99° (E) 10:28:29 145.840 MHz, 145.915 MHz
Oscar 11 03 Sep 10:23:10 10:26:35 22° 97° (E) 10:29:58 145.825 FM, Beacon 2401.500 USB
FUNcube-1 03 Sep 10:59:14 11:02:54 23° 97° (E) 11:06:33 145.950 - 145.970 MHz USB
PANSAT 03 Sep 11:03:02 11:06:54 75° 170° (S) 11:10:46 not established
HO-68 03 Sep 11:38:07 11:44:07 30° 293° (WNW) 11:50:08 435.675 MHz FM
UKube-1 03 Sep 11:58:00 12:00:26 15° 291° (WNW) 12:02:53 145.840 MHz, 145.915 MHz
Oscar 11 03 Sep 11:59:16 12:02:35 22° 288° (WNW) 12:05:54 145.825 FM, Beacon 2401.500 USB
SO-50 03 Sep 12:24:36 12:28:58 33° 59° (ENE) 12:33:21 436.795 FM
MaSat-1 03 Sep 12:32:52 12:37:31 66° 108° (ESE) 12:42:35 437.345 MHz
FUNcube-1 03 Sep 12:35:28 12:39:07 24° 288° (WNW) 12:42:47 145.950 - 145.970 MHz USB
PANSAT 03 Sep 12:43:13 12:47:06 83° 2° (N) 12:50:59 not established
Oscar 19 03 Sep 13:22:41 13:26:14 19° 69° (ENE) 13:29:48 437.125 CW, 437.150 USB
Oscar 16 03 Sep 13:56:43 14:01:37 46° 74° (ENE) 14:06:33 437.025 USB, Beacon 2401.1428
UOSAT-12 03 Sep 14:02:42 14:06:35 25° 57° (ENE) 14:10:23 437.025 FM, 437.400 FM
ITAMSAT 1 03 Sep 14:03:54 14:07:40 21° 69° (ENE) 14:11:25 435.822 SSB
SO-50 03 Sep 14:05:48 14:09:16 20° 251° (WSW) 14:12:45 436.795 FM
Uribyol 2 03 Sep 14:12:13 14:16:30 27° 71° (ENE) 14:20:47 436.500 FM
MaSat-1 03 Sep 14:13:13 14:14:59 12° 303° (WNW) 14:16:48 437.345 MHz
PANSAT 03 Sep 14:23:27 14:27:15 57° 195° (SSW) 14:31:03 not established
JAS-1B 03 Sep 14:28:02 14:37:26 53° 72° (ENE) 14:45:59 435.800 - 435.900 CW/SSB
AO-27 03 Sep 14:32:45 14:37:37 43° 73° (ENE) 14:42:29 436.795 MHz FM
TMSAT-1 03 Sep 14:35:49 14:37:59 13° 67° (ENE) 14:40:08 436.925 FM
AO-Echo 03 Sep 14:55:40 15:00:44 87° 77° (ENE) 15:05:39 ?
Oscar 19 03 Sep 15:00:31 15:05:14 37° 261° (W) 15:10:00 437.125 CW, 437.150 USB
PCSat 03 Sep 15:04:05 15:06:15 12° 103° (ESE) 15:08:24 145.825 MHz
Gurwin Techsat 1B 03 Sep 15:23:15 15:28:28 61° 75° (ENE) 15:33:41 435.225 FM
AO-7 03 Sep 15:31:27 15:36:50 19° 60° (ENE) 15:42:12 29.400 - 29.500 MHz
Oscar 16 03 Sep 15:38:23 15:41:06 14° 265° (W) 15:43:49 437.025 USB, Beacon 2401.1428
ITAMSAT 1 03 Sep 15:42:14 15:46:52 34° 261° (W) 15:51:31 435.822 SSB
UOSAT-12 03 Sep 15:42:47 15:46:35 25° 250° (WSW) 15:50:20 437.025 FM, 437.400 FM
Uribyol 2 03 Sep 15:51:39 15:55:50 25° 263° (W) 16:00:02 436.500 FM
Uosat F 03 Sep 15:53:08 15:55:02 12° 67° (ENE) 15:56:57 435.120 FM
RS-15 03 Sep 15:53:59 16:02:59 27° 49° (NE) 16:12:12 29.354 - 29.394 USB, Beacon 29.352 USB
PANSAT 03 Sep 16:04:24 16:07:07 18° 205° (SSW) 16:09:50 not established
TMSAT-1 03 Sep 16:12:08 16:17:19 59° 259° (W) 16:22:32 436.925 FM
AO-27 03 Sep 16:14:12 16:17:13 16° 265° (W) 16:20:14 436.795 MHz FM
Sapphire 03 Sep 16:14:43 16:20:03 66° 111° (ESE) 16:25:24 437.095 MHz 1200 baud AX-25 AFSK
JAS-1B 03 Sep 16:19:20 16:27:46 33° 262° (W) 16:35:43 435.800 - 435.900 CW/SSB
PCSat 03 Sep 16:43:46 16:49:04 58° 295° (WNW) 16:54:25 145.825 MHz
ISS 03 Sep 17:06:50 17:10:01 42° 45° (NE) 17:13:11 145.800 FM
Gurwin Techsat 1B 03 Sep 17:07:11 17:08:40 11° 266° (W) 17:10:09 435.225 FM
AO-7 03 Sep 17:20:25 17:28:44 74° 255° (WSW) 17:37:04 29.400 - 29.500 MHz
Uosat F 03 Sep 17:28:24 17:33:17 55° 259° (W) 17:38:12 435.120 FM
JAS-2 03 Sep 17:30:01 17:33:05 15° 69° (ENE) 17:36:00 435.800 - 435.900 CW/SSB, 435.910 FM
OPAL 03 Sep 17:33:22 17:38:20 44° 102° (ESE) 17:43:14 ?
Sapphire 03 Sep 18:01:29 18:03:52 13° 306° (NW) 18:06:17 437.095 MHz 1200 baud AX-25 AFSK
RS-15 03 Sep 18:05:00 18:16:09 73° 248° (WSW) 18:27:49 29.354 - 29.394 USB, Beacon 29.352 USB
ISS 03 Sep 18:46:10 18:46:23 10° 236° (SW) 18:46:36 145.800 FM
Hamsat 03 Sep 19:02:53 19:07:05 55° 260° (W) 19:11:21 145.90 MHz
JAS-2 03 Sep 19:11:38 19:17:49 57° 258° (WSW) 19:23:21 435.800 - 435.900 CW/SSB, 435.910 FM
OPAL 03 Sep 19:13:33 19:16:47 17° 294° (WNW) 19:20:00 ?
STRAND 1 03 Sep 19:24:32 19:28:41 25° 97° (E) 19:32:49 ?
SO-67 03 Sep 20:09:31 20:12:55 60° 260° (W) 20:16:21 435.3500 MHz FM
HO-68 03 Sep 20:14:30 20:17:53 14° 61° (ENE) 20:21:16 435.675 MHz FM
RS-15 03 Sep 20:25:59 20:26:52 10° 260° (W) 20:27:45 29.354 - 29.394 USB, Beacon 29.352 USB
STRAND 1 03 Sep 21:03:29 21:07:44 27° 289° (WNW) 21:11:59 ?
UKube-1 03 Sep 21:11:30 21:13:21 13° 69° (ENE) 21:15:12 145.840 MHz, 145.915 MHz
Saudisat 1A 03 Sep 21:25:56 21:30:08 46° 113° (ESE) 21:34:21 436.775 MHz
